﻿測定場所 (Monitoring sites),日付 (Measurement date),時間 (Measurement time),線量率 最大値 (max) μGy/h,線量率 最小値 (min) μGy/h,線量率 平均値 (average) μGy/h,
調布 (Chofu),2024-03-31,23:01～24:00,0.0304,0.0262,0.0282,
調布 (Chofu),2024-03-31,22:01～23:00,0.0303,0.0263,0.0283,
調布 (Chofu),2024-03-31,21:01～22:00,0.0301,0.0262,0.0282,
調布 (Chofu),2024-03-31,20:01～21:00,0.0301,0.0262,0.0279,
調布 (Chofu),2024-03-31,19:01～20:00,0.0309,0.0266,0.0282,
調布 (Chofu),2024-03-31,18:01～19:00,0.0310,0.0258,0.0280,
調布 (Chofu),2024-03-31,17:01～18:00,0.0305,0.0258,0.0281,
調布 (Chofu),2024-03-31,16:01～17:00,0.0312,0.0269,0.0283,
調布 (Chofu),2024-03-31,15:01～16:00,0.0307,0.0269,0.0284,
調布 (Chofu),2024-03-31,14:01～15:00,0.0306,0.0265,0.0284,
調布 (Chofu),2024-03-31,13:01～14:00,0.0298,0.0264,0.0282,
調布 (Chofu),2024-03-31,12:01～13:00,0.0299,0.0252,0.0281,
調布 (Chofu),2024-03-31,11:01～12:00,0.0303,0.0258,0.0280,
調布 (Chofu),2024-03-31,10:01～11:00,0.0309,0.0262,0.0285,
調布 (Chofu),2024-03-31,09:01～10:00,0.0304,0.0262,0.0283,
調布 (Chofu),2024-03-31,08:01～09:00,0.0308,0.0270,0.0288,
調布 (Chofu),2024-03-31,07:01～08:00,0.0322,0.0264,0.0293,
調布 (Chofu),2024-03-31,06:01～07:00,0.0306,0.0268,0.0290,
調布 (Chofu),2024-03-31,05:01～06:00,0.0310,0.0266,0.0286,
調布 (Chofu),2024-03-31,04:01～05:00,0.0308,0.0263,0.0285,
調布 (Chofu),2024-03-31,03:01～04:00,0.0310,0.0263,0.0281,
調布 (Chofu),2024-03-31,02:01～03:00,0.0298,0.0258,0.0280,
調布 (Chofu),2024-03-31,01:01～02:00,0.0308,0.0266,0.0280,
調布 (Chofu),2024-03-31,00:01～01:00,0.0304,0.0264,0.0280,
調布 (Chofu),2024-03-30,23:01～24:00,0.0305,0.0260,0.0280,
調布 (Chofu),2024-03-30,22:01～23:00,0.0299,0.0259,0.0278,
調布 (Chofu),2024-03-30,21:01～22:00,0.0298,0.0257,0.0279,
調布 (Chofu),2024-03-30,20:01～21:00,0.0296,0.0255,0.0277,
調布 (Chofu),2024-03-30,19:01～20:00,0.0304,0.0249,0.0278,
調布 (Chofu),2024-03-30,18:01～19:00,0.0297,0.0253,0.0277,
調布 (Chofu),2024-03-30,17:01～18:00,0.0292,0.0253,0.0277,
調布 (Chofu),2024-03-30,16:01～17:00,0.0297,0.0254,0.0276,
調布 (Chofu),2024-03-30,15:01～16:00,0.0308,0.0257,0.0277,
調布 (Chofu),2024-03-30,14:01～15:00,0.0298,0.0252,0.0278,
調布 (Chofu),2024-03-30,13:01～14:00,0.0294,0.0263,0.0280,
調布 (Chofu),2024-03-30,12:01～13:00,0.0304,0.0262,0.0284,
調布 (Chofu),2024-03-30,11:01～12:00,0.0303,0.0253,0.0281,
調布 (Chofu),2024-03-30,10:01～11:00,0.0308,0.0262,0.0281,
調布 (Chofu),2024-03-30,09:01～10:00,0.0310,0.0254,0.0284,
調布 (Chofu),2024-03-30,08:01～09:00,0.0304,0.0273,0.0288,
調布 (Chofu),2024-03-30,07:01～08:00,0.0310,0.0265,0.0288,
調布 (Chofu),2024-03-30,06:01～07:00,0.0315,0.0268,0.0289,
調布 (Chofu),2024-03-30,05:01～06:00,0.0311,0.0263,0.0289,
調布 (Chofu),2024-03-30,04:01～05:00,0.0307,0.0256,0.0285,
調布 (Chofu),2024-03-30,03:01～04:00,0.0304,0.0266,0.0284,
調布 (Chofu),2024-03-30,02:01～03:00,0.0303,0.0270,0.0282,
調布 (Chofu),2024-03-30,01:01～02:00,0.0310,0.0256,0.0282,
調布 (Chofu),2024-03-30,00:01～01:00,0.0303,0.0264,0.0283,
調布 (Chofu),2024-03-29,23:01～24:00,0.0297,0.0256,0.0276,
調布 (Chofu),2024-03-29,22:01～23:00,0.0295,0.0249,0.0276,
調布 (Chofu),2024-03-29,21:01～22:00,0.0297,0.0249,0.0275,
調布 (Chofu),2024-03-29,20:01～21:00,0.0291,0.0250,0.0274,
調布 (Chofu),2024-03-29,19:01～20:00,0.0301,0.0255,0.0274,
調布 (Chofu),2024-03-29,18:01～19:00,0.0298,0.0256,0.0276,
調布 (Chofu),2024-03-29,17:01～18:00,0.0298,0.0255,0.0277,
調布 (Chofu),2024-03-29,16:01～17:00,0.0302,0.0261,0.0281,
調布 (Chofu),2024-03-29,15:01～16:00,0.0301,0.0260,0.0279,
調布 (Chofu),2024-03-29,14:01～15:00,0.0322,0.0260,0.0288,
調布 (Chofu),2024-03-29,13:01～14:00,0.0344,0.0279,0.0315,
調布 (Chofu),2024-03-29,12:01～13:00,0.0359,0.0306,0.0333,
調布 (Chofu),2024-03-29,11:01～12:00,0.0432,0.0333,0.0386,
調布 (Chofu),2024-03-29,10:01～11:00,0.0430,0.0362,0.0391,
調布 (Chofu),2024-03-29,09:01～10:00,0.0386,0.0342,0.0365,
調布 (Chofu),2024-03-29,08:01～09:00,0.0399,0.0344,0.0368,
調布 (Chofu),2024-03-29,07:01～08:00,0.0376,0.0315,0.0343,
調布 (Chofu),2024-03-29,06:01～07:00,0.0388,0.0321,0.0352,
調布 (Chofu),2024-03-29,05:01～06:00,0.0403,0.0353,0.0381,
調布 (Chofu),2024-03-29,04:01～05:00,0.0418,0.0357,0.0387,
調布 (Chofu),2024-03-29,03:01～04:00,0.0395,0.0356,0.0377,
調布 (Chofu),2024-03-29,02:01～03:00,0.0404,0.0349,0.0379,
調布 (Chofu),2024-03-29,01:01～02:00,0.0412,0.0347,0.0377,
調布 (Chofu),2024-03-29,00:01～01:00,0.0415,0.0359,0.0390,
調布 (Chofu),2024-03-28,23:01～24:00,0.0423,0.0354,0.0384,
調布 (Chofu),2024-03-28,22:01～23:00,0.0375,0.0329,0.0354,
調布 (Chofu),2024-03-28,21:01～22:00,0.0362,0.0304,0.0335,
調布 (Chofu),2024-03-28,20:01～21:00,0.0342,0.0296,0.0322,
調布 (Chofu),2024-03-28,19:01～20:00,0.0325,0.0283,0.0304,
調布 (Chofu),2024-03-28,18:01～19:00,0.0309,0.0259,0.0282,
調布 (Chofu),2024-03-28,17:01～18:00,0.0295,0.0250,0.0273,
調布 (Chofu),2024-03-28,16:01～17:00,0.0293,0.0259,0.0274,
調布 (Chofu),2024-03-28,15:01～16:00,0.0294,0.0247,0.0274,
調布 (Chofu),2024-03-28,14:01～15:00,0.0297,0.0261,0.0276,
調布 (Chofu),2024-03-28,13:01～14:00,0.0298,0.0253,0.0280,
調布 (Chofu),2024-03-28,12:01～13:00,0.0302,0.0254,0.0280,
調布 (Chofu),2024-03-28,11:01～12:00,0.0304,0.0263,0.0281,
調布 (Chofu),2024-03-28,10:01～11:00,0.0298,0.0262,0.0283,
調布 (Chofu),2024-03-28,09:01～10:00,0.0308,0.0262,0.0281,
調布 (Chofu),2024-03-28,08:01～09:00,0.0298,0.0266,0.0283,
調布 (Chofu),2024-03-28,07:01～08:00,0.0309,0.0263,0.0282,
調布 (Chofu),2024-03-28,06:01～07:00,0.0304,0.0260,0.0281,
調布 (Chofu),2024-03-28,05:01～06:00,0.0301,0.0257,0.0280,
調布 (Chofu),2024-03-28,04:01～05:00,0.0306,0.0259,0.0279,
調布 (Chofu),2024-03-28,03:01～04:00,0.0295,0.0253,0.0276,
調布 (Chofu),2024-03-28,02:01～03:00,0.0293,0.0259,0.0276,
調布 (Chofu),2024-03-28,01:01～02:00,0.0292,0.0257,0.0276,
調布 (Chofu),2024-03-28,00:01～01:00,0.0294,0.0249,0.0274,
調布 (Chofu),2024-03-27,23:01～24:00,0.0294,0.0251,0.0273,
調布 (Chofu),2024-03-27,22:01～23:00,0.0297,0.0248,0.0271,
調布 (Chofu),2024-03-27,21:01～22:00,0.0290,0.0256,0.0271,
調布 (Chofu),2024-03-27,20:01～21:00,0.0301,0.0248,0.0271,
調布 (Chofu),2024-03-27,19:01～20:00,0.0291,0.0245,0.0272,
調布 (Chofu),2024-03-27,18:01～19:00,0.0298,0.0252,0.0272,
調布 (Chofu),2024-03-27,17:01～18:00,0.0294,0.0253,0.0271,
調布 (Chofu),2024-03-27,16:01～17:00,0.0288,0.0248,0.0271,
調布 (Chofu),2024-03-27,15:01～16:00,0.0287,0.0255,0.0273,
調布 (Chofu),2024-03-27,14:01～15:00,0.0298,0.0249,0.0271,
調布 (Chofu),2024-03-27,13:01～14:00,0.0294,0.0252,0.0273,
調布 (Chofu),2024-03-27,12:01～13:00,0.0301,0.0250,0.0273,
調布 (Chofu),2024-03-27,11:01～12:00,0.0289,0.0257,0.0272,
調布 (Chofu),2024-03-27,10:01～11:00,0.0289,0.0255,0.0271,
調布 (Chofu),2024-03-27,09:01～10:00,0.0291,0.0254,0.0273,
調布 (Chofu),2024-03-27,08:01～09:00,0.0294,0.0246,0.0272,
調布 (Chofu),2024-03-27,07:01～08:00,0.0296,0.0251,0.0272,
調布 (Chofu),2024-03-27,06:01～07:00,0.0293,0.0252,0.0272,
調布 (Chofu),2024-03-27,05:01～06:00,0.0289,0.0249,0.0271,
調布 (Chofu),2024-03-27,04:01～05:00,0.0302,0.0255,0.0273,
調布 (Chofu),2024-03-27,03:01～04:00,0.0290,0.0254,0.0274,
調布 (Chofu),2024-03-27,02:01～03:00,0.0301,0.0240,0.0275,
調布 (Chofu),2024-03-27,01:01～02:00,0.0296,0.0259,0.0278,
調布 (Chofu),2024-03-27,00:01～01:00,0.0310,0.0263,0.0284,
調布 (Chofu),2024-03-26,23:01～24:00,0.0322,0.0279,0.0298,
調布 (Chofu),2024-03-26,22:01～23:00,0.0363,0.0307,0.0339,
調布 (Chofu),2024-03-26,21:01～22:00,0.0384,0.0323,0.0351,
調布 (Chofu),2024-03-26,20:01～21:00,0.0431,0.0356,0.0391,
調布 (Chofu),2024-03-26,19:01～20:00,0.0444,0.0389,0.0416,
調布 (Chofu),2024-03-26,18:01～19:00,0.0471,0.0405,0.0437,
調布 (Chofu),2024-03-26,17:01～18:00,0.0564,0.0424,0.0484,
調布 (Chofu),2024-03-26,16:01～17:00,0.0635,0.0530,0.0583,
調布 (Chofu),2024-03-26,15:01～16:00,0.0639,0.0509,0.0576,
調布 (Chofu),2024-03-26,14:01～15:00,0.0570,0.0476,0.0523,
調布 (Chofu),2024-03-26,13:01～14:00,0.0528,0.0433,0.0466,
調布 (Chofu),2024-03-26,12:01～13:00,0.0544,0.0456,0.0495,
調布 (Chofu),2024-03-26,11:01～12:00,0.0545,0.0468,0.0503,
調布 (Chofu),2024-03-26,10:01～11:00,0.0541,0.0440,0.0490,
調布 (Chofu),2024-03-26,09:01～10:00,0.0487,0.0427,0.0455,
調布 (Chofu),2024-03-26,08:01～09:00,0.0471,0.0306,0.0390,
調布 (Chofu),2024-03-26,07:01～08:00,0.0313,0.0269,0.0289,
調布 (Chofu),2024-03-26,06:01～07:00,0.0320,0.0272,0.0292,
調布 (Chofu),2024-03-26,05:01～06:00,0.0308,0.0262,0.0281,
調布 (Chofu),2024-03-26,04:01～05:00,0.0302,0.0262,0.0280,
調布 (Chofu),2024-03-26,03:01～04:00,0.0310,0.0262,0.0281,
調布 (Chofu),2024-03-26,02:01～03:00,0.0308,0.0264,0.0288,
調布 (Chofu),2024-03-26,01:01～02:00,0.0306,0.0265,0.0287,
調布 (Chofu),2024-03-26,00:01～01:00,0.0308,0.0266,0.0286,
調布 (Chofu),2024-03-25,23:01～24:00,0.0298,0.0259,0.0280,
調布 (Chofu),2024-03-25,22:01～23:00,0.0301,0.0260,0.0281,
調布 (Chofu),2024-03-25,21:01～22:00,0.0301,0.0257,0.0281,
調布 (Chofu),2024-03-25,20:01～21:00,0.0295,0.0264,0.0280,
調布 (Chofu),2024-03-25,19:01～20:00,0.0301,0.0256,0.0280,
調布 (Chofu),2024-03-25,18:01～19:00,0.0307,0.0256,0.0280,
調布 (Chofu),2024-03-25,17:01～18:00,0.0306,0.0262,0.0282,
調布 (Chofu),2024-03-25,16:01～17:00,0.0312,0.0270,0.0288,
調布 (Chofu),2024-03-25,15:01～16:00,0.0336,0.0276,0.0305,
調布 (Chofu),2024-03-25,14:01～15:00,0.0353,0.0304,0.0327,
調布 (Chofu),2024-03-25,13:01～14:00,0.0350,0.0307,0.0328,
調布 (Chofu),2024-03-25,12:01～13:00,0.0357,0.0315,0.0333,
調布 (Chofu),2024-03-25,11:01～12:00,0.0346,0.0308,0.0329,
調布 (Chofu),2024-03-25,10:01～11:00,0.0387,0.0329,0.0358,
調布 (Chofu),2024-03-25,09:01～10:00,0.0429,0.0366,0.0397,
調布 (Chofu),2024-03-25,08:01～09:00,0.0437,0.0361,0.0402,
調布 (Chofu),2024-03-25,07:01～08:00,0.0417,0.0346,0.0383,
調布 (Chofu),2024-03-25,06:01～07:00,0.0449,0.0378,0.0402,
調布 (Chofu),2024-03-25,05:01～06:00,0.0439,0.0381,0.0412,
調布 (Chofu),2024-03-25,04:01～05:00,0.0420,0.0310,0.0355,
調布 (Chofu),2024-03-25,03:01～04:00,0.0332,0.0270,0.0296,
調布 (Chofu),2024-03-25,02:01～03:00,0.0321,0.0263,0.0290,
調布 (Chofu),2024-03-25,01:01～02:00,0.0312,0.0259,0.0290,
調布 (Chofu),2024-03-25,00:01～01:00,0.0310,0.0270,0.0293,
